ANA9128 RJFF-RJAA

Flight info

Callsign ANA9128
Flight time 1h 23m
Altitude 39000
Route CARSE Y81 RUTAS
Aircraft B77W/H-SDE1E2E3FGHIJ2J3J4J5M1RWXY/LB1D1

Departure

Time 2026-05-08 02:08
Airport Fukuoka Airport (RJFF)

Arrival

Time 2026-05-08 03:32
Airport Narita International Airport (RJAA)
Time Latitude Longitude Altitude Speed Heading
2026-05-08 01:48 33.59640 130.44783 50 ft 0 kts 60°
2026-05-08 01:59 33.59636 130.44774 50 ft 2 kts 60°
2026-05-08 01:59 33.59629 130.44759 50 ft 2 kts 60°
2026-05-08 02:00 33.59621 130.44743 50 ft 2 kts 60°
2026-05-08 02:00 33.59615 130.44727 50 ft 2 kts 77°
2026-05-08 02:00 33.59615 130.44710 50 ft 2 kts 108°
2026-05-08 02:00 33.59622 130.44694 50 ft 2 kts 135°
2026-05-08 02:01 33.59634 130.44684 50 ft 2 kts 154°
2026-05-08 02:01 33.59647 130.44676 50 ft 2 kts 152°
2026-05-08 02:01 33.59660 130.44669 50 ft 1 kts 149°
2026-05-08 02:01 33.59662 130.44667 50 ft 0 kts 149°
2026-05-08 02:03 33.59653 130.44673 50 ft 5 kts 149°
2026-05-08 02:03 33.59597 130.44711 50 ft 12 kts 150°
2026-05-08 02:04 33.59498 130.44778 50 ft 19 kts 150°
2026-05-08 02:04 33.59365 130.44849 50 ft 21 kts 170°
2026-05-08 02:04 33.59223 130.44870 50 ft 19 kts 158°
2026-05-08 02:04 33.59109 130.44943 50 ft 18 kts 150°
2026-05-08 02:05 33.58998 130.45018 50 ft 18 kts 150°
2026-05-08 02:05 33.58875 130.45103 50 ft 22 kts 150°
2026-05-08 02:05 33.58727 130.45206 50 ft 26 kts 149°
2026-05-08 02:05 33.58559 130.45322 50 ft 29 kts 150°
2026-05-08 02:06 33.58412 130.45421 50 ft 32 kts 150°
2026-05-08 02:06 33.58302 130.45494 50 ft 30 kts 150°
2026-05-08 02:06 33.58125 130.45615 50 ft 25 kts 150°
2026-05-08 02:06 33.58007 130.45677 50 ft 13 kts 200°
2026-05-08 02:07 33.57947 130.45590 50 ft 13 kts 240°
2026-05-08 02:07 33.57964 130.45503 50 ft 10 kts 316°
2026-05-08 02:07 33.58016 130.45460 50 ft 10 kts 330°
2026-05-08 02:07 33.58208 130.45334 50 ft 68 kts 330°
2026-05-08 02:08 33.58863 130.44890 52 ft 142 kts 328°
2026-05-08 02:08 33.59776 130.44260 634 ft 155 kts 326°
2026-05-08 02:08 33.60683 130.43614 1580 ft 157 kts 327°
2026-05-08 02:08 33.61625 130.42946 2320 ft 163 kts 328°
2026-05-08 02:09 33.62590 130.42291 3109 ft 162 kts 328°
2026-05-08 02:09 33.63668 130.41676 3616 ft 182 kts 341°
2026-05-08 02:09 33.64991 130.41533 4078 ft 209 kts
2026-05-08 02:09 33.66454 130.42137 4627 ft 237 kts 28°
2026-05-08 02:10 33.67700 130.43582 5151 ft 267 kts 52°
2026-05-08 02:10 33.68593 130.45612 5825 ft 286 kts 68°
2026-05-08 02:10 33.68834 130.48016 6589 ft 302 kts 96°
2026-05-08 02:10 33.68169 130.50394 7472 ft 306 kts 123°
2026-05-08 02:11 33.66729 130.52264 8290 ft 308 kts 146°
2026-05-08 02:11 33.65018 130.53751 9269 ft 308 kts 150°
2026-05-08 02:11 33.63252 130.55231 10184 ft 312 kts 150°
2026-05-08 02:11 33.61433 130.56746 10818 ft 328 kts 150°
2026-05-08 02:12 33.59516 130.58342 11444 ft 344 kts 151°
2026-05-08 02:12 33.57503 130.60016 12100 ft 360 kts 151°
2026-05-08 02:12 33.55422 130.61746 12753 ft 376 kts 151°
2026-05-08 02:12 33.53220 130.63579 13482 ft 391 kts 151°
2026-05-08 02:13 33.50962 130.65459 14218 ft 405 kts 152°
2026-05-08 02:13 33.48605 130.67421 15113 ft 415 kts 152°
2026-05-08 02:13 33.46226 130.69403 16056 ft 422 kts 153°
2026-05-08 02:13 33.43819 130.71408 17114 ft 426 kts 153°
2026-05-08 02:14 33.41387 130.73433 18066 ft 431 kts 154°
2026-05-08 02:14 33.38916 130.75487 18864 ft 440 kts 154°
2026-05-08 02:14 33.36369 130.77605 19825 ft 444 kts 154°
2026-05-08 02:14 33.33870 130.79683 20804 ft 446 kts 154°
2026-05-08 02:15 33.31287 130.81828 21657 ft 451 kts 154°
2026-05-08 02:15 33.28708 130.83968 22337 ft 459 kts 154°
2026-05-08 02:15 33.26084 130.86145 23158 ft 464 kts 154°
2026-05-08 02:15 33.23447 130.88356 23958 ft 471 kts 152°
2026-05-08 02:16 33.20932 130.91003 24777 ft 488 kts 142°
2026-05-08 02:16 33.18736 130.94148 25572 ft 503 kts 133°
2026-05-08 02:16 33.16903 130.97739 26296 ft 519 kts 123°
2026-05-08 02:16 33.15494 131.01772 27038 ft 533 kts 113°
2026-05-08 02:17 33.14558 131.06078 27820 ft 542 kts 107°
2026-05-08 02:17 33.13743 131.10460 28576 ft 547 kts 107°
2026-05-08 02:17 33.12894 131.14893 29293 ft 552 kts 108°
2026-05-08 02:17 33.12006 131.19356 29904 ft 559 kts 108°
2026-05-08 02:18 33.11082 131.23866 30579 ft 564 kts 108°
2026-05-08 02:18 33.10140 131.28380 31374 ft 565 kts 109°
2026-05-08 02:18 33.09206 131.32898 32251 ft 564 kts 105°
2026-05-08 02:18 33.08646 131.37476 33119 ft 566 kts 97°
2026-05-08 02:19 33.08608 131.42194 33969 ft 567 kts 88°
2026-05-08 02:19 33.09056 131.46895 34690 ft 567 kts 82°
2026-05-08 02:19 33.09654 131.51508 35363 ft 567 kts 81°
2026-05-08 02:19 33.10273 131.56181 36118 ft 564 kts 81°
2026-05-08 02:20 33.10875 131.60744 36788 ft 562 kts 81°
2026-05-08 02:20 33.11476 131.65329 37370 ft 561 kts 82°
2026-05-08 02:20 33.12078 131.69943 37790 ft 562 kts 82°
2026-05-08 02:20 33.12672 131.74512 38161 ft 563 kts 82°
2026-05-08 02:21 33.13271 131.79141 38516 ft 565 kts 82°
2026-05-08 02:21 33.13864 131.83745 38878 ft 565 kts 81°
2026-05-08 02:21 33.15051 131.92996 38913 ft 563 kts 82°
2026-05-08 02:22 33.16226 132.02229 38914 ft 561 kts 82°
2026-05-08 02:22 33.17393 132.11450 38910 ft 564 kts 82°
2026-05-08 02:23 33.18552 132.20665 38901 ft 561 kts 81°
2026-05-08 02:23 33.19700 132.29852 38900 ft 562 kts 82°
2026-05-08 02:24 33.20842 132.39044 38908 ft 562 kts 82°
2026-05-08 02:24 33.21973 132.48206 38915 ft 560 kts 82°
2026-05-08 02:25 33.23103 132.57414 38918 ft 561 kts 82°
2026-05-08 02:25 33.24226 132.66620 38912 ft 560 kts 83°
2026-05-08 02:26 33.25337 132.75789 38901 ft 560 kts 83°
2026-05-08 02:26 33.26445 132.84994 38903 ft 559 kts 83°
2026-05-08 02:27 33.27537 132.94128 38911 ft 559 kts 83°
2026-05-08 02:27 33.28627 133.03291 38920 ft 558 kts 83°
2026-05-08 02:28 33.29708 133.12450 38914 ft 559 kts 83°
2026-05-08 02:28 33.30783 133.21622 38911 ft 559 kts 83°
2026-05-08 02:29 33.31852 133.30808 38903 ft 559 kts 83°
2026-05-08 02:29 33.32912 133.39975 38892 ft 559 kts 83°
2026-05-08 02:30 33.33966 133.49149 38887 ft 559 kts 83°
2026-05-08 02:30 33.35019 133.58366 38888 ft 559 kts 83°
2026-05-08 02:31 33.36059 133.67548 38870 ft 561 kts 83°
2026-05-08 02:31 33.37099 133.76775 38868 ft 560 kts 84°
2026-05-08 02:32 33.38125 133.85951 38871 ft 560 kts 84°
2026-05-08 02:32 33.39153 133.95203 38870 ft 559 kts 83°
2026-05-08 02:33 33.40163 134.04367 38869 ft 560 kts 83°
2026-05-08 02:33 33.41179 134.13632 38870 ft 561 kts 84°
2026-05-08 02:34 33.42176 134.22798 38870 ft 559 kts 83°
2026-05-08 02:34 33.43171 134.32011 38866 ft 562 kts 84°
2026-05-08 02:35 33.44162 134.41252 38861 ft 558 kts 84°
2026-05-08 02:35 33.45144 134.50475 38855 ft 561 kts 83°
2026-05-08 02:36 33.46117 134.59677 38853 ft 558 kts 84°
2026-05-08 02:36 33.47078 134.68834 38835 ft 558 kts 84°
2026-05-08 02:37 33.48042 134.78088 38838 ft 558 kts 84°
2026-05-08 02:37 33.48993 134.87285 38837 ft 557 kts 84°
2026-05-08 02:38 33.49934 134.96445 38842 ft 558 kts 84°
2026-05-08 02:38 33.50875 135.05655 38847 ft 557 kts 84°
2026-05-08 02:39 33.51805 135.14827 38845 ft 557 kts 84°
2026-05-08 02:39 33.52728 135.23993 38846 ft 556 kts 84°
2026-05-08 02:40 33.53647 135.33185 38849 ft 555 kts 84°
2026-05-08 02:40 33.54551 135.42308 38856 ft 555 kts 84°
2026-05-08 02:41 33.55455 135.51486 38850 ft 554 kts 84°
2026-05-08 02:41 33.56345 135.60600 38854 ft 554 kts 84°
2026-05-08 02:42 33.57232 135.69754 38831 ft 553 kts 85°
2026-05-08 02:42 33.58112 135.78914 38846 ft 553 kts 85°
2026-05-08 02:43 33.58981 135.88020 38844 ft 552 kts 85°
2026-05-08 02:43 33.59842 135.97124 38839 ft 552 kts 84°
2026-05-08 02:44 33.60703 136.06296 38830 ft 552 kts 84°
2026-05-08 02:44 33.61552 136.15411 38817 ft 554 kts 85°
2026-05-08 02:45 33.62394 136.24522 38821 ft 551 kts 85°
2026-05-08 02:45 33.63235 136.33701 38829 ft 553 kts 84°
2026-05-08 02:46 33.64064 136.42831 38818 ft 551 kts 84°
2026-05-08 02:46 33.64960 136.51903 38815 ft 550 kts 79°
2026-05-08 02:47 33.66779 136.60809 38835 ft 553 kts 75°
2026-05-08 02:47 33.68703 136.69722 38805 ft 551 kts 76°
2026-05-08 02:48 33.70611 136.78587 38804 ft 551 kts 76°
2026-05-08 02:48 33.72527 136.87523 38809 ft 550 kts 76°
2026-05-08 02:49 33.74422 136.96394 38818 ft 550 kts 76°
2026-05-08 02:49 33.76301 137.05225 38822 ft 548 kts 76°
2026-05-08 02:50 33.78177 137.14073 38818 ft 549 kts 76°
2026-05-08 02:50 33.80058 137.22983 38817 ft 550 kts 76°
2026-05-08 02:51 33.81922 137.31844 38819 ft 548 kts 76°
2026-05-08 02:51 33.83781 137.40714 38831 ft 546 kts 76°
2026-05-08 02:52 33.85627 137.49559 38827 ft 548 kts 76°
2026-05-08 02:52 33.87471 137.58426 38828 ft 546 kts 76°
2026-05-08 02:53 33.89308 137.67293 38807 ft 547 kts 77°
2026-05-08 02:53 33.91140 137.76160 38793 ft 546 kts 77°
2026-05-08 02:54 33.92957 137.85002 38800 ft 549 kts 77°
2026-05-08 02:54 33.94784 137.93927 38802 ft 549 kts 77°
2026-05-08 02:55 33.97501 138.07263 38805 ft 549 kts 77°
2026-05-08 02:56 33.99304 138.16159 38811 ft 548 kts 77°
2026-05-08 02:56 34.01102 138.25067 38814 ft 549 kts 77°
2026-05-08 02:57 34.02908 138.34047 38810 ft 548 kts 76°
2026-05-08 02:57 34.04686 138.42925 38826 ft 548 kts 77°
2026-05-08 02:58 34.06457 138.51805 38827 ft 545 kts 77°
2026-05-08 02:58 34.08219 138.60673 38830 ft 545 kts 77°
2026-05-08 02:59 34.09971 138.69522 38813 ft 545 kts 78°
2026-05-08 02:59 34.11728 138.78444 38817 ft 545 kts 77°
2026-05-08 03:00 34.13464 138.87286 38791 ft 543 kts 78°
2026-05-08 03:00 34.15205 138.96191 38793 ft 544 kts 78°
2026-05-08 03:01 34.16916 139.04982 38797 ft 542 kts 78°
2026-05-08 03:01 34.18627 139.13806 38807 ft 541 kts 78°
2026-05-08 03:02 34.20337 139.22667 38817 ft 543 kts 78°
2026-05-08 03:02 34.21187 139.27081 38547 ft 538 kts 78°
2026-05-08 03:02 34.22029 139.31462 37602 ft 544 kts 78°
2026-05-08 03:02 34.22876 139.35884 36733 ft 546 kts 78°
2026-05-08 03:03 34.23738 139.40387 35933 ft 547 kts 79°
2026-05-08 03:03 34.24590 139.44853 35114 ft 549 kts 78°
2026-05-08 03:03 34.25443 139.49332 34283 ft 550 kts 78°
2026-05-08 03:03 34.26298 139.53830 33405 ft 551 kts 79°
2026-05-08 03:04 34.27148 139.58313 32513 ft 553 kts 79°
2026-05-08 03:04 34.27999 139.62808 31603 ft 554 kts 78°
2026-05-08 03:04 34.28853 139.67329 30677 ft 555 kts 79°
2026-05-08 03:04 34.29705 139.71848 30024 ft 550 kts 79°
2026-05-08 03:05 34.30549 139.76335 29547 ft 541 kts 79°
2026-05-08 03:05 34.31371 139.80713 29027 ft 534 kts 79°
2026-05-08 03:05 34.32190 139.85080 28467 ft 529 kts 79°
2026-05-08 03:05 34.32997 139.89398 27893 ft 524 kts 79°
2026-05-08 03:06 34.33880 139.93652 27315 ft 521 kts 73°
2026-05-08 03:06 34.35205 139.97690 26743 ft 517 kts 64°
2026-05-08 03:06 34.36989 140.01442 26164 ft 512 kts 54°
2026-05-08 03:06 34.39102 140.04817 25606 ft 507 kts 50°
2026-05-08 03:07 34.41334 140.08154 25026 ft 503 kts 50°
2026-05-08 03:07 34.43507 140.11406 24442 ft 499 kts 50°
2026-05-08 03:07 34.45655 140.14679 23850 ft 496 kts 52°
2026-05-08 03:07 34.47829 140.17839 23647 ft 481 kts 43°
2026-05-08 03:08 34.50316 140.20511 23647 ft 483 kts 34°
2026-05-08 03:08 34.53069 140.22992 23665 ft 495 kts 33°
2026-05-08 03:08 34.55817 140.25432 23672 ft 495 kts 33°
2026-05-08 03:08 34.58612 140.27914 23680 ft 494 kts 33°
2026-05-08 03:09 34.61379 140.30374 23692 ft 495 kts 33°
2026-05-08 03:09 34.64150 140.32840 23703 ft 495 kts 33°
2026-05-08 03:09 34.66925 140.35310 23715 ft 496 kts 33°
2026-05-08 03:09 34.69704 140.37788 23724 ft 496 kts 33°
2026-05-08 03:10 34.72496 140.40277 23738 ft 496 kts 33°
2026-05-08 03:10 34.75270 140.42755 23735 ft 496 kts 33°
2026-05-08 03:10 34.78062 140.45248 23458 ft 499 kts 33°
2026-05-08 03:10 34.80837 140.47729 22931 ft 498 kts 34°
2026-05-08 03:11 34.83619 140.50221 22349 ft 494 kts 34°
2026-05-08 03:11 34.86375 140.52690 21764 ft 491 kts 34°
2026-05-08 03:11 34.89136 140.55165 21166 ft 488 kts 34°
2026-05-08 03:11 34.91827 140.57581 20571 ft 486 kts 34°
2026-05-08 03:12 34.94535 140.60013 19967 ft 483 kts 34°
2026-05-08 03:12 34.97255 140.62459 19364 ft 480 kts 34°
2026-05-08 03:12 34.99938 140.64873 18771 ft 477 kts 34°
2026-05-08 03:12 35.02574 140.67246 18166 ft 474 kts 35°
2026-05-08 03:13 35.05269 140.69577 17538 ft 470 kts 30°
2026-05-08 03:13 35.08144 140.71397 16918 ft 463 kts 19°
2026-05-08 03:13 35.11153 140.72594 16523 ft 448 kts
2026-05-08 03:13 35.14170 140.73164 16492 ft 424 kts 359°
2026-05-08 03:14 35.17054 140.73206 16332 ft 416 kts 350°
2026-05-08 03:14 35.19971 140.72763 16205 ft 424 kts 345°
2026-05-08 03:14 35.22866 140.72194 15492 ft 425 kts 344°
2026-05-08 03:14 35.25819 140.71602 14705 ft 428 kts 344°
2026-05-08 03:15 35.28748 140.71016 14059 ft 426 kts 345°
2026-05-08 03:15 35.31663 140.70433 13454 ft 423 kts 345°
2026-05-08 03:15 35.34539 140.69858 12930 ft 418 kts 345°
2026-05-08 03:15 35.37386 140.69289 12430 ft 412 kts 345°
2026-05-08 03:16 35.40215 140.68723 11875 ft 408 kts 345°
2026-05-08 03:16 35.43011 140.68161 11291 ft 405 kts 345°
2026-05-08 03:16 35.45786 140.67604 10749 ft 401 kts 345°
2026-05-08 03:16 35.48478 140.67067 10620 ft 384 kts 345°
2026-05-08 03:17 35.51069 140.66550 10528 ft 368 kts 345°
2026-05-08 03:17 35.53549 140.66054 10389 ft 355 kts 345°
2026-05-08 03:17 35.55936 140.65578 10258 ft 343 kts 344°
2026-05-08 03:17 35.58257 140.65112 10112 ft 332 kts 344°
2026-05-08 03:18 35.60489 140.64664 9943 ft 321 kts 344°
2026-05-08 03:18 35.62693 140.64221 9649 ft 312 kts 344°
2026-05-08 03:18 35.64819 140.63791 9249 ft 308 kts 344°
2026-05-08 03:18 35.66905 140.63368 8878 ft 304 kts 344°
2026-05-08 03:19 35.68961 140.62819 8627 ft 288 kts 331°
2026-05-08 03:19 35.70635 140.61684 8570 ft 266 kts 321°
2026-05-08 03:19 35.72161 140.60483 8563 ft 268 kts 320°
2026-05-08 03:19 35.73760 140.59206 8548 ft 277 kts 320°
2026-05-08 03:20 35.75398 140.57901 8329 ft 279 kts 320°
2026-05-08 03:20 35.77035 140.56598 7993 ft 279 kts 321°
2026-05-08 03:20 35.78650 140.55313 7636 ft 278 kts 321°
2026-05-08 03:20 35.80283 140.54013 7296 ft 278 kts 321°
2026-05-08 03:21 35.81914 140.52713 6959 ft 279 kts 322°
2026-05-08 03:21 35.83522 140.51431 6616 ft 280 kts 322°
2026-05-08 03:21 35.85165 140.50120 6230 ft 282 kts 323°
2026-05-08 03:21 35.86817 140.48802 5825 ft 283 kts 323°
2026-05-08 03:22 35.88466 140.47487 5457 ft 279 kts 323°
2026-05-08 03:22 35.90073 140.46205 5125 ft 275 kts 323°
2026-05-08 03:22 35.91675 140.44926 4787 ft 271 kts 323°
2026-05-08 03:22 35.93257 140.43661 4437 ft 268 kts 324°
2026-05-08 03:23 35.94806 140.42424 4098 ft 266 kts 324°
2026-05-08 03:23 35.96229 140.41017 3861 ft 254 kts 309°
2026-05-08 03:23 35.97319 140.39354 3782 ft 252 kts 304°
2026-05-08 03:23 35.98358 140.37637 3656 ft 246 kts 304°
2026-05-08 03:24 35.99360 140.35971 3524 ft 239 kts 304°
2026-05-08 03:24 36.00351 140.34328 3397 ft 232 kts 303°
2026-05-08 03:24 36.01299 140.32754 3276 ft 225 kts 304°
2026-05-08 03:24 36.02215 140.31235 3152 ft 217 kts 304°
2026-05-08 03:25 36.03093 140.29764 3031 ft 209 kts 299°
2026-05-08 03:25 36.03546 140.28130 2965 ft 197 kts 274°
2026-05-08 03:25 36.03614 140.26453 2955 ft 194 kts 263°
2026-05-08 03:25 36.03151 140.24957 2943 ft 188 kts 228°
2026-05-08 03:26 36.02074 140.24095 2946 ft 186 kts 193°
2026-05-08 03:26 36.00794 140.23956 2958 ft 186 kts 181°
2026-05-08 03:26 35.99511 140.24129 2953 ft 186 kts 160°
2026-05-08 03:26 35.98348 140.24861 2961 ft 188 kts 150°
2026-05-08 03:27 35.97254 140.25737 2963 ft 188 kts 150°
2026-05-08 03:27 35.96138 140.26576 2959 ft 188 kts 152°
2026-05-08 03:27 35.95001 140.27390 2962 ft 188 kts 153°
2026-05-08 03:27 35.93863 140.28200 2960 ft 188 kts 153°
2026-05-08 03:28 35.92741 140.29002 2836 ft 185 kts 153°
2026-05-08 03:28 35.91651 140.29787 2606 ft 181 kts 153°
2026-05-08 03:28 35.90567 140.30568 2382 ft 177 kts 153°
2026-05-08 03:28 35.89516 140.31326 2153 ft 173 kts 153°
2026-05-08 03:29 35.88497 140.32063 1929 ft 166 kts 153°
2026-05-08 03:29 35.87547 140.32750 1703 ft 148 kts 153°
2026-05-08 03:29 35.86680 140.33372 1528 ft 143 kts 154°
2026-05-08 03:29 35.85818 140.33995 1346 ft 141 kts 153°
2026-05-08 03:30 35.84123 140.35220 969 ft 145 kts 153°
2026-05-08 03:30 35.82629 140.36299 626 ft 144 kts 152°
2026-05-08 03:31 35.80886 140.37558 289 ft 147 kts 153°
2026-05-08 03:31 35.79264 140.38716 144 ft 81 kts 148°
2026-05-08 03:32 35.78881 140.38986 144 ft 47 kts 149°
2026-05-08 03:32 35.78607 140.39079 144 ft 23 kts 175°
2026-05-08 03:32 35.78454 140.39116 144 ft 21 kts 166°
2026-05-08 03:32 35.78313 140.39156 144 ft 18 kts 167°
2026-05-08 03:33 35.78193 140.39191 144 ft 14 kts 172°
2026-05-08 03:33 35.78110 140.39134 144 ft 14 kts 230°
2026-05-08 03:33 35.78018 140.39137 144 ft 16 kts 148°
2026-05-08 03:33 35.77938 140.39258 144 ft 20 kts 113°
2026-05-08 03:34 35.77873 140.39427 144 ft 23 kts 117°
2026-05-08 03:34 35.77742 140.39560 144 ft 26 kts 149°
2026-05-08 03:34 35.77576 140.39674 144 ft 28 kts 151°
2026-05-08 03:34 35.77456 140.39757 144 ft 29 kts 148°
2026-05-08 03:35 35.77215 140.39935 144 ft 31 kts 150°
2026-05-08 03:35 35.77032 140.39973 144 ft 27 kts 203°
2026-05-08 03:35 35.76959 140.39934 144 ft 21 kts 204°
2026-05-08 03:36 35.76865 140.39885 144 ft 11 kts 205°
2026-05-08 03:36 35.76867 140.39786 144 ft 9 kts 300°
2026-05-08 03:36 35.76907 140.39699 144 ft 13 kts 296°
2026-05-08 03:36 35.76911 140.39578 144 ft 16 kts 238°
2026-05-08 03:37 35.76890 140.39537 144 ft 17 kts 237°
2026-05-08 03:37 35.76843 140.39403 144 ft 19 kts 240°
2026-05-08 03:37 35.76724 140.39317 144 ft 21 kts 203°
2026-05-08 03:38 35.76577 140.39237 144 ft 24 kts 204°
2026-05-08 03:38 35.76417 140.39145 144 ft 25 kts 205°
2026-05-08 03:38 35.76260 140.39052 144 ft 24 kts 206°
2026-05-08 03:38 35.76186 140.39014 144 ft 21 kts 199°
2026-05-08 03:39 35.76078 140.38960 144 ft 14 kts 214°
2026-05-08 03:39 35.76066 140.38943 144 ft 13 kts 243°
2026-05-08 03:40 35.76073 140.38864 144 ft 10 kts 295°
2026-05-08 03:41 35.76079 140.38838 144 ft 10 kts 278°
2026-05-08 03:41 35.76066 140.38789 144 ft 5 kts 239°
2026-05-08 03:41 35.76045 140.38744 144 ft 6 kts 239°
2026-05-08 03:42 35.76033 140.38719 144 ft 0 kts 239°